Regional Weather Roundup
Issued by NWS

Home | Current Version | Previous Version | Text Only | Print | Product List | Glossary On
Versions: 1 2 3 4 5 6 7 8 9 10 11 12 13 14 15 16 17 18 19 20 21 22 23 24 25 26 27 28 29 30 31 32 33 34 35 36 37 38 39 40 41 42 43 44 45 46 47 48 49 50
000
ASUS42 KFFC 280910
RWRGA
WEATHER ROUNDUP FOR GEORGIA
NATIONAL WEATHER SERVICE PEACHTREE CITY GA
500 AM EDT TUE MAR 28 2017

NOTE: "FAIR" INDICATES FEW OR NO CLOUDS BELOW 12,000 FEET WITH NO
SIGNIFICANT WEATHER AND/OR OBSTRUCTIONS TO VISIBILITY.

* = USE WITH CAUTION. THE STATIONS MARKED WITH AN ASTERISK MAY NOT
REPORT WEATHER SUCH AS PRECIPITATION, FOG, OR THUNDER AND ARE NOT
QUALITY CONTROLLED BY NWS.

THE REMARK "TC" DENOTES TEMPERATURE READING IN DEGREES CELSIUS.

GAZ001>058-281000-
NORTH GEORGIA

CITY           SKY/WX    TMP DP  RH WIND       PRES   REMARKS
ATLANTA        CLOUDY    63  60  90 NW6       29.97R
ATHENS         CLOUDY    61  60  97 CALM      29.97S
CHAMBLEE       LGT RAIN  61  59  93 CALM      29.97R
PEACHTREE CITY CLOUDY    66  59  78 VRB5      29.97R
ROME           CLOUDY    60  58  92 CALM      29.93R
WEST ATLANTA   LGT RAIN  62  59  90 CALM      29.97S
GAINESVILLE    LGT RAIN  58  58 100 S5        29.96F
CARTERSVILLE   CLOUDY    60  58  92 S6        29.94F


CITY           SKY/WX    TMP DP  RH WIND       PRES   REMARKS
DALTON*        PTCLDY    55  55 100 CALM      29.93S
MARIETTA       LGT RAIN  61  61 100 CALM      29.97F
CANTON*        CLOUDY    59  55  88 S5        29.95F FOG
$$

GAZ059>098-102>109-281000-
CENTRAL GEORGIA

CITY           SKY/WX    TMP DP  RH WIND       PRES   REMARKS
AUGUSTA-BUSH   CLOUDY    68  57  68 SW5       29.96S
AUGUSTA-DANIEL MOCLDY    68  54  60 SW7       29.97S
COLUMBUS       CLOUDY    67  60  78 SW7       29.96F
MACON          CLOUDY    65  55  70 CALM      29.97F
ROBINS AFB     CLOUDY    65  57  73 SW6       29.97F


CITY           SKY/WX    TMP DP  RH WIND       PRES   REMARKS
LAGRANGE*      CLOUDY    68  67  96 W7        29.97S
SYLVANIA*      PTCLDY   N/A N/A N/A SW3       30.00F
MILLEDGEVILLE* CLOUDY    64  59  82 CALM      29.95F
$$

GAZ099>101-110>166-281000-
SOUTH GEORGIA

CITY           SKY/WX    TMP DP  RH WIND       PRES   REMARKS
SAVANNAH       MOCLDY    66  60  81 SW7       30.01S
VALDOSTA       CLEAR     56  55  97 CALM      30.02S FOG
ALMA           PTCLDY    61  58  90 S5        30.01F
ST SIMONS      CLOUDY    66  62  87 W6        30.03R
FT STEWART     PTCLDY    66  59  78 SW5       29.99S
ALBANY         MOCLDY    64  61  90 W8        30.02S
HUNTER AFB     PTCLDY    67  65  93 S3        29.98F
MOODY AFB      CLEAR     60  59  95 S3        30.00F
BRUNSWICK      CLOUDY    68  63  83 SW5       30.03S


CITY           SKY/WX    TMP DP  RH WIND       PRES   REMARKS
BAINBRIDGE*    CLOUDY    63  63 100 SW3       30.00F
MOULTRIE*      PTCLDY    61  59  94 CALM      30.02S
VIDALIA*       PTCLDY    64  59  82 S5        30.00F
WAYCROSS*      PTCLDY    64  62  93 SW6       30.02S
DOUGLAS*       CLEAR     61  59  94 CALM      30.03S
$$




USA.gov is the U.S. government's official web portal to all federal, state and local government web resources and services.